Regional Weather Roundup
Issued by NWS Jackson, KY

Home | Current Version | Previous Version | Text Only | Print | Product List | Glossary Off
Versions: 1 2 3 4 5 6 7 8 9 10 11 12 13 14 15 16 17 18 19 20 21 22 23 24 25 26 27 28

000
ASUS43 KJKL 171010
RWRJKL

EAST KENTUCKY HOURLY WEATHER ROUNDUP
NATIONAL WEATHER SERVICE JACKSON KY
500 AM EST FRI NOV 17 2017

NOTE: "FAIR" INDICATES FEW OR NO CLOUDS BELOW 12,000 FEET WITH
NO SIGNIFICANT WEATHER AND/OR OBSTRUCTIONS TO VISIBILITY.

* THESE REPORTS ARE NOT UNDER NWS QUALITY CONTROL AND MAY NOT
  REPORT WEATHER SUCH AS PRECIPITATION AND FOG.

KYZ079-080-083-085-087-088-110-112-115-119-120-171100
...EASTERN KENTUCKY...

CITY           SKY/WX    TMP DP  RH WIND       PRES   REMARKS
JACKSON        CLOUDY    33  28  81 VRB5      30.23S WCI  29
LONDON         CLOUDY    33  29  85 E3        30.22S
SOMERSET*      CLOUDY    32  32 100 E3        30.24S
MONTICELLO*    CLOUDY    35  34  96 N6        30.23S FOG     WCI  30
WILLIAMSBURG*  CLOUDY    36  36 100 E3        30.21S
MIDDLESBORO*   CLOUDY    38  37  96 CALM      30.22S
HARLAN APT*    PTSUNNY   36  32  87 CALM      30.20F
PIKE CO APT*   CLOUDY    33  29  83 E5        30.23F WCI  29
BIG SANDY APT* CLOUDY    35  29  80 SE6       30.24F WCI  30
MOREHEAD APT*  CLOUDY    36  28  75 VRB7      30.26R WCI  30
$$

KYZ035-036-041-042-044-050-067-078-099-171100
...CENTRAL KENTUCKY...

CITY           SKY/WX    TMP DP  RH WIND       PRES   REMARKS
MT STERLING*   CLOUDY    34  30  86 SE7       30.25S WCI  28
FLEMING/MASON* CLOUDY    34  29  81 SE8       30.27R WCI  27
DANVILLE*      CLOUDY    32  32 100 SE6       30.23S WCI  26
LEXINGTON      CLOUDY    34  29  82 E12       30.24R WCI  25
FRANKFORT      CLOUDY    35  28  75 E6        30.24R WCI  30
LOUISVILLE     CLOUDY    36  30  79 E10       30.23S WCI  28
LEBANON*       MIX PCPN  32  28  86 E6        30.22S WCI  26
GLASGOW*       CLOUDY   N/A N/A N/A E6        30.21R FOG
BOWLING GREEN  CLOUDY    37  36  96 E7        30.21S FOG     WCI  32
$$

KYZ091>093-OHZ055-061-077-WVZ005-015-034-035-042-171100
...SOUTHERN OHIO/WEST VIRGINIA...

CITY           SKY/WX    TMP DP  RH WIND       PRES   REMARKS
COVINGTON      CLOUDY    36  31  82 SE10      30.24S WCI  28
COLUMBUS       CLOUDY    37  29  72 SE5       30.25F WCI  33
DAYTON         CLOUDY    36  31  82 SE10      30.23F WCI  28
WILMINGTON     CLOUDY    36  30  79 SE9       30.24R WCI  29
HUNTINGTON     CLOUDY    36  28  73 E3        30.27R
CHARLESTON     CLOUDY    38  29  70 CALM      30.27R
PINEVILLE*     CLOUDY    35  28  76 MISG      30.29F
BLUEFIELD      CLOUDY    30  25  81 W5        30.21S WCI  25
LOGAN CO APT*  CLOUDY    34  28  80 E7        30.23F WCI  28
$$

VAZ002-007-008-TNZ017-027-036-066-071-171100
...SOUTHWEST VIRGINIA/EAST TENNESSEE...

CITY           SKY/WX    TMP DP  RH WIND       PRES   REMARKS
WISE*          CLOUDY    32  32 100 CALM      30.18F
JONESVILLE*      N/A     28  28 100 CALM      30.22S
ABINGDON*      CLEAR     31  30  97 CALM      30.20S
BRISTOL        CLEAR     30  30 100 CALM      30.21F FOG
MORRISTOWN*    SUNNY     37  34  87 NE7       30.18F WCI  32
SEVIERVILLE*   SUNNY     32  32 100 CALM      30.18F
KNOXVILLE      CLEAR     37  37 100 E3        30.16F
LAFOLLETTE*    SUNNY     32  32 100 CALM      30.23S FOG
OAK RIDGE      CLEAR     38  37  97 CALM      30.19F
CROSSVILLE     PTCLDY    32  31  96 CALM      30.16S FOG
NASHVILLE      PTCLDY    35  32  88 NE3       30.19R FOG
$$

...KEY TO REMARKS...
VSB - VISIBILITY IN MILES
WCI - WIND CHILL INDEX
HX  - HEAT INDEX

$$




USA.gov is the U.S. government's official web portal to all federal, state and local government web resources and services.